lobby

Flag for Finland Weather past 2 weeks in Tampere, Finland

Now
37 °F

Passing clouds.


Feels Like: 30 °F
Forecast: 32 / 47 °F
Wind: 10 mph from North

Location: Tampere / Pirkkala

Current Time: Sep 23, 2014 at 12:10:05 PM

Latest Report: Sep 23, 2014 at 11:20 AM


Visibility: N/A

Pressure: 29.74 "Hg

Humidity: 70%

Dew point: 28 °F

Location of TampereLocation

Historic Weather in Tampere — Graph

°F

Tampere temperature yesterday

Maximum temperature yesterday: 54 °F (at 3:50 AM)
Minimum temperature yesterday: 39 °F (at 5:20 PM)
Average temperature yesterday: 45 °F

Past Weeks' High & Low Weather Summary

 TemperatureHumidityPressure
High70 °F (Sep 8, 2:50 PM)100% (Sep 9, 7:20 PM)30.48 "Hg (Sep 9, 7:20 PM)
Low32 °F (Sep 23, 7:20 AM)45% (Sep 13, 3:20 PM)29.65 "Hg (Sep 21, 6:50 PM)
Average52 °F87%30.16 "Hg
* Reported Sep 8 10:20 AM — Sep 23 10:50 AM, Tampere, Weather by CustomWeather, © 2014

Note: Actual official high and low records may vary slightly from our data, if they occured in-between our weather recording intervals... More about our weather records

Advertising

Tampere weather history for previous 24 hours

 ConditionsComfort  
Time TempWeatherWind HumidityBarometerVisibility
10:50 AM
Sep 23
36 °FPassing clouds.14 mph75%29.74 "HgN/A
10:20 AM36 °FPassing clouds.12 mph75%29.77 "HgN/A
9:50 AM34 °FSunny.8 mph81%29.77 "Hg10 mi
9:20 AM32 °FPassing clouds.10 mph87%29.77 "HgN/A
8:50 AM32 °FPassing clouds.9 mph87%29.77 "HgN/A
8:20 AM32 °FPassing clouds.9 mph87%29.77 "HgN/A
7:50 AM32 °FPassing clouds.8 mph87%29.77 "HgN/A
7:20 AM32 °FClear.9 mph87%29.77 "Hg10 mi
6:50 AM34 °FClear.9 mph81%29.77 "Hg10 mi
6:20 AM34 °FClear.9 mph81%29.77 "Hg10 mi
5:50 AM36 °FPassing clouds.12 mph75%29.74 "HgN/A
5:20 AM36 °FPassing clouds.8 mph75%29.74 "HgN/A
4:50 AM37 °FPassing clouds.8 mph70%29.74 "HgN/A
4:20 AM37 °FOvercast.10 mph70%29.77 "HgN/A
3:50 AM37 °FMostly cloudy.10 mph70%29.77 "HgN/A
3:20 AM39 °FOvercast.10 mph61%29.77 "HgN/A
2:50 AM39 °FClear.8 mph65%29.77 "Hg10 mi
2:20 AM39 °FPassing clouds.8 mph61%29.77 "HgN/A
1:50 AM39 °FOvercast.13 mph61%29.77 "HgN/A
1:20 AM39 °FClear.15 mph65%29.77 "Hg10 mi
12:50 AM39 °FOvercast.12 mph65%29.77 "HgN/A
12:20 AM39 °FPartly cloudy.13 mph70%29.77 "HgN/A
11:50 PM
Sep 22
39 °FOvercast.10 mph81%29.77 "HgN/A
11:20 PM39 °FPartly cloudy.10 mph81%29.77 "HgN/A
10:50 PM39 °FLight snow. Overcast.13 mph81%29.77 "HgN/A
10:20 PM39 °FLight snow. Mostly cloudy.10 mph87%29.77 "HgN/A
9:50 PM39 °FLight snow. Overcast.13 mph93%29.77 "HgN/A
9:20 PM39 °FLight rain. Mostly cloudy.13 mph93%29.77 "HgN/A
8:50 PM39 °FLight rain. Mostly cloudy.13 mph93%29.77 "HgN/A
8:20 PM39 °FRain. Cloudy.14 mph93%29.77 "HgN/A
7:50 PM39 °FRain. Mostly cloudy.14 mph93%29.77 "HgN/A
7:20 PM39 °FRain. Cloudy.12 mph93%29.77 "HgN/A
6:50 PM39 °FRain. Cloudy.12 mph100%29.77 "HgN/A
6:20 PM39 °FLight rain. Mostly cloudy.12 mph100%29.77 "HgN/A
5:50 PM39 °FRain. Mostly cloudy.14 mph100%29.77 "HgN/A
5:20 PM39 °FRain. Mostly cloudy.12 mph100%29.77 "HgN/A
4:50 PM41 °FLight rain. Partly sunny.12 mph93%29.74 "HgN/A
4:20 PM41 °FRain. Cloudy.12 mph93%29.74 "Hg6 mi
3:50 PM41 °FLight rain. Broken clouds.14 mph93%29.74 "Hg3 mi
3:20 PM41 °FLight rain. Partly sunny.12 mph93%29.74 "HgN/A
2:50 PM41 °FLight rain. Partly sunny.12 mph93%29.74 "HgN/A
2:20 PM41 °FLight rain. Partly sunny.12 mph100%29.74 "HgN/A
1:50 PM41 °FLight rain. Partly sunny.12 mph93%29.74 "HgN/A
1:20 PM41 °FLight rain. Partly sunny.13 mph93%29.74 "Hg6 mi
12:50 PM41 °FLight rain. Partly sunny.14 mph93%29.71 "HgN/A
12:20 PM43 °FLight rain. Low clouds.13 mph93%29.71 "HgN/A
Weather by CustomWeather, © 2014

See weather overviewHow to use our weather pages